Regional Weather Roundup
Issued by NWS

Home | Current Version | Previous Version | Text Only | Print | Product List | Glossary On
Versions: 1 2 3 4 5 6 7 8 9 10 11 12 13 14 15 16 17 18 19 20 21 22 23 24 25 26 27 28 29 30 31 32 33 34 35 36 37 38 39 40 41 42 43 44 45 46 47 48 49 50
000
ASUS43 KLMK 160910
RWRKY
KENTUCKY REGIONAL WEATHER ROUNDUP
NATIONAL WEATHER SERVICE LOUISVILLE KY
400 AM EST MON JAN 16 2017

NOTE "FAIR" INDICATES FEW OR NO CLOUDS BELOW 12,000 FEET
WITH NO SIGNIFICANT WEATHER AND/OR OBSTRUCTIONS TO VISIBILITY.

KYZ001>023-026-027-061>063-070>075-161000-
WESTERN AND SOUTH CENTRAL KENTUCKY

CITY           SKY/WX    TMP DP  RH WIND       PRES   REMARKS
PADUCAH        FOG       44  42  93 E8        30.18F VSB 1/2
HENDERSON      CLOUDY    43  37  81 E3        30.22F
OWENSBORO      CLOUDY    43  41  93 SE5       30.23F
HOPKINSVILLE   FOG       45  45  99 E6        30.21F VSB 1/2
BOWLING GREEN  FOG       46  45  96 E3        30.24S VSB 1/4
GLASGOW        CLOUDY   N/A N/A N/A E3        30.23F FOG
$$

KYZ024-025-028>034-038-045-046-053-161000-
NORTH CENTRAL KENTUCKY

CITY           SKY/WX    TMP DP  RH WIND       PRES   REMARKS
LOUISVILLE/SDF CLOUDY    42  39  89 NE3       30.26F
LOUISVILLE/LOU CLOUDY    42  39  89 NE3       30.27S
FORT KNOX      FOG       40  40 100 NE3       30.23F VSB 1/2
$$

KYZ035>037-039>044-047>052-055>060-089>105-161000-
NORTHEAST KENTUCKY

CITY           SKY/WX    TMP DP  RH WIND       PRES   REMARKS
LEXINGTON      CLOUDY    42  40  92 E5        30.26F
COVINGTON      CLOUDY    38  37  97 E6        30.28S FOG     WCI  33
FRANKFORT      CLOUDY    42  38  85 NE5       30.26S
$$

KYZ054-064>069-076>088-106>120-161000-
SOUTHEAST KENTUCKY

CITY           SKY/WX    TMP DP  RH WIND       PRES   REMARKS
JACKSON        FOG       41  40  96 CALM      30.27S VSB 1/4
LONDON         FOG       46  44  93 CALM      30.26S VSB 1/4
SOMERSET       CLOUDY    45  45 100 CALM      30.27F FOG
MIDDLESBORO    CLOUDY    50  50 100 CALM      30.27S
MONTICELLO     CLOUDY    46  46 100 VRB6      30.27S FOG
$$





USA.gov is the U.S. government's official web portal to all federal, state and local government web resources and services.